Regional Weather Roundup
Issued by NWS

Home | Current Version | Previous Version | Text Only | Print | Product List | Glossary Off
Versions: 1 2 3 4 5 6 7 8 9 10 11 12 13 14 15 16 17 18 19 20 21 22 23 24 25 26 27 28 29 30 31 32 33 34 35 36 37 38 39 40 41 42 43 44 45 46 47 48 49 50

825
ASUS43 KLSX 161157
RWRMO

WEATHER SUMMARY FOR MISSOURI
NATIONAL WEATHER SERVICE SPRINGFIELD MO
600 AM CST MON JAN 16 2017

NOTE: "FAIR" INDICATES FEW OR NO CLOUDS BELOW 12,000 FEET WITH NO
       SIGNIFICANT WEATHER AND/OR OBSTRUCTIONS TO VISIBILITY.
       CURRENT SKY AND/OR WEATHER CONDITIONS ARE NOT AVAILABLE FOR
       CHILLICOTHE AND FARMINGTON.

MOZ001>031-035>038-043-044-053-054-161300-
...NORTHERN AND WESTERN MISSOURI...

CITY           SKY/WX    TMP DP  RH WIND       PRES   REMARKS
KANSAS CTY INT LGT RAIN  35  32  88 E10       29.94F FOG     WCI  27
6HR MIN TEMP:  33; 6HR MAX TEMP:  35; 6HR PCP:  0.37;

LEE`S SUMMIT   LGT RAIN  35  50 100 E13       29.93F WCI  26
6HR MIN TEMP:  33; 6HR MAX TEMP:  35; 6HR PCP:  0.30;

ST JOSEPH      LGT RAIN  33  33 100 E10       29.97F WCI  25
6HR MIN TEMP:  32; 6HR MAX TEMP:  33; 6HR PCP:  0.16;

CHILLICOTHE      N/A     33  32  96 E6        30.04F WCI  28
6HR MIN TEMP:  32; 6HR MAX TEMP:  33; 6HR PCP:  0.29;


$$
MOZ066>068-077>081-088>096-101>105-161300-
...SOUTHWEST MISSOURI...

CITY           SKY/WX    TMP DP  RH WIND       PRES   REMARKS
SPRINGFIELD    LGT RAIN  48  46  93 SE23      29.94F
6HR MIN TEMP:  44; 6HR MAX TEMP:  48; 6HR PCP:  0.09;

JOPLIN         CLOUDY    52  51  97 E17       29.85F
6HR MIN TEMP:  47; 6HR MAX TEMP:  53; 6HR PCP:  0.27;


$$
MOZ032>034-039>042-045>050-055>058-069>072-161300-
...CENTRAL MISSOURI...

CITY           SKY/WX    TMP DP  RH WIND       PRES   REMARKS
COLUMBIA       NOT AVBL
JEFFERSON CITY LGT RAIN  39  38  96 E9        30.07F FOG
6HR MIN TEMP:  35; 6HR MAX TEMP:  39; 6HR PCP:  0.02;

ROLLA          LGT RAIN  39  39 100 E14       30.04F VSB 1
6HR MIN TEMP:  33; 6HR MAX TEMP:  39; 6HR PCP:  0.02;

SEDALIA        LGT RAIN  40  39  97 E10       29.99F FOG
6HR MIN TEMP:  35; 6HR MAX TEMP:  40; 6HR PCP:  0.16;

WARRENSBURG    DRIZZLE   36  36 100 E10       29.96F WCI  28

$$
MOZ051-052-059>065-161300-
...EAST CENTRAL MISSOURI...

CITY           SKY/WX    TMP DP  RH WIND       PRES   REMARKS
ST LOUIS INTL  FOG       40  38  93 SE9       30.14S VSB 1/2
6HR MIN TEMP:  38; 6HR MAX TEMP:  40;


$$
MOZ072>076-082>087-097>100-106>115-161300-
...SOUTH CENTRAL AND SOUTHEAST MISSOURI...

CITY           SKY/WX    TMP DP  RH WIND       PRES   REMARKS
CAPE GIRARDEAU FOG       43  42  97 CALM      30.15S VSB 1/4
6HR MIN TEMP:  40; 6HR MAX TEMP:  43;

POPLAR BLUFF   FOG       43  43 100 NE3       30.13F VSB 1/4
6HR MIN TEMP:  41; 6HR MAX TEMP:  43;

WEST PLAINS    FOG       44  43  96 SE8       30.08F VSB 1/4
6HR MIN TEMP:  40; 6HR MAX TEMP:  44; 6HR PCP:  0.01;


$$



USA.gov is the U.S. government's official web portal to all federal, state and local government web resources and services.